Location: Newark
(2.6153°S, 29.9989°E)
Time: 18:08:44
(UTC+00:00)

N. Korean satellite - Visible Passes

Search period start: 23 August 2019 00:00
Search period end: 02 September 2019 00:00
Orbit: 457 x 507 km, 97.2° (Epoch: 23 August)

Date Brightness Start Highest point End Pass type
(mag) Time Alt. Az. Time Alt. Az. Time Alt. Az.
23 Aug 9.5 02:57:11 10° ENE 02:59:35 18° ESE 03:01:58 10° SE visible
26 Aug 8.2 03:14:14 10° NE 03:17:25 35° E 03:20:35 10° SSE visible
26 Aug 10.2 16:35:43 10° WSW 16:36:36 11° WSW 16:37:29 10° W visible
27 Aug 9.7 02:50:33 10° ENE 02:52:19 14° ESE 02:54:05 10° SE visible
29 Aug 6.6 03:31:48 10° NNE 03:35:14 79° E 03:38:40 10° S visible
30 Aug 8.8 03:07:11 10° NE 03:10:07 26° ESE 03:13:03 10° SSE visible
30 Aug 9.9 16:27:22 10° SW 16:29:21 14° WSW 16:31:20 10° WNW visible
31 Aug 10.1 02:44:35 10° E 02:45:02 10° ESE 02:45:28 10° ESE visible
